Regional Weather Roundup
Issued by NWS

Home | Current Version | Previous Version | Text Only | Print | Product List | Glossary On
Versions: 1 2 3 4 5 6 7 8 9 10 11 12 13 14 15 16 17 18 19 20 21 22 23 24 25 26 27 28 29 30 31 32 33 34 35 36 37 38 39 40 41 42 43 44 45 46 47 48 49 50
000
ASUS43 KIND 262109
RWRIN

WEATHER ROUNDUP FOR INDIANA
NATIONAL WEATHER SERVICE INDIANAPOLIS IN
400 PM EST SUN FEB 26 2017

NOTE: "FAIR" INDICATES FEW OR NO CLOUDS BELOW 12,000 FEET WITH NO
SIGNIFICANT WEATHER AND/OR OBSTRUCTIONS TO VISIBILITY.

* - STATION DOES NOT REPORT WEATHER SUCH AS PRECIPITATION OR FOG.

+ - STATION NOT QUALITY CONTROLLED BY THE NATIONAL WEATHER SERVICE.
    USE DATA WITH CAUTION...ESPECIALLY DEWPOINT AND RELATIVE
    HUMIDITY OBSERVATIONS.

INZ001>003-010>013-019-020-262200-
NORTHWEST INDIANA

CITY           SKY/WX    TMP DP  RH WIND       PRES   REMARKS
GARY /AIRPORT/ MOSUNNY   48  12  23 SW23G41   29.96F
KNOX *+        SUNNY     46 -13   8 SW25G31   29.98F
LA PORTE +     MOSUNNY   46  20  36 SW22G32   29.97S
MICHIGAN CITY+ MOSUNNY   46  21  36 SW23G33   29.97S
MONTICELLO +   SUNNY     46  15  28 SW21G29   30.02F
RENSSELAER +   SUNNY     48  18  29 SW24G32   30.00F
VALPARAISO     PTSUNNY   49  20  31 SW23G31   29.98S

$$

LMZ046-743>745-262200-
SOUTHERN LAKE MICHIGAN

STATION/POSITION TIME  TEMP    WIND        PRES    WAVE
                       AIR SEA DIR/SP/G            HT
                 (UTC) (F)     (DEG/KT/KT) (MB)    (FT)
BURNS HARBOR     2040   46     230/ 18/ 30 1014.9R
MICHIGAN CITY    2040   44     200/ 24/ 28   N/A

$$

INZ004-005-014>016-021>024-262200-
NORTH CENTRAL INDIANA

CITY           SKY/WX    TMP DP  RH WIND       PRES   REMARKS
ELKHART        SUNNY     45  19  36 SW21G28   29.98S
GOSHEN         SUNNY     44  19  36 SW23G32   29.99F
LOGANSPORT +   SUNNY     45  23  42 SW18G28   30.05S
PERU/GRISSOM   SUNNY     46  20  34 SW25G31   30.02S
ROCHESTER +    SUNNY     46  18  31 SW20G25   30.02F
SOUTH BEND     MOSUNNY   45  19  35 SW22G38   29.97F
WARSAW +       SUNNY     45  19  36 SW13G21   30.01S

$$

INZ006>009-017-018-025>027-262200-
NORTHEAST INDIANA

CITY           SKY/WX    TMP DP  RH WIND       PRES   REMARKS
ANGOLA *+      SUNNY     43  30  61 SW16      29.99S
AUBURN +       SUNNY     43  19  39 SW15G25   30.03S
FORT WAYNE     MOSUNNY   44  22  41 SW22G31   30.04F
HUNTINGTON +   PTSUNNY   43  18  35 SW10G24   30.04S
KENDALLVILLE + SUNNY     42  22  44 SW22G28   30.00S

$$

INZ028-029-035-036-043>045-051>053-262200-
WEST CENTRAL INDIANA

CITY           SKY/WX    TMP DP  RH WIND       PRES   REMARKS
LAFAYETTE      SUNNY     46  17  31 SW20G30   30.05S
TERRE HAUTE    CLOUDY    46  14  27 SW10G21   30.10F

$$

INZ030>032-037>040-046>048-054>057-064-065-262200-
CENTRAL INDIANA

CITY           SKY/WX    TMP DP  RH WIND       PRES   REMARKS
CP ATTERBURY + PTSUNNY   48  12  23 SW13G20   30.12S
COLUMBUS       MOSUNNY   48  16  27 S15       30.13F
FISHERS *+     MOSUNNY   43  21  42 SW9G20    30.09S
FRANKFORT +    SUNNY     45  22  39 SW18G26   30.07S
GREENWOOD *+   CLOUDY    46  16  29 SW14      30.11S
INDIANAPOLIS   CLOUDY    46  12  25 SW23      30.09F
-EAGLE CREEK   CLOUDY    46  14  27 SW10G17   30.09S
KOKOMO +       SUNNY     46  18  32 SW26G32   30.05F
MARION +       SUNNY     44  21  39 SW21      30.07S HAZE
MT COMFORT *+  PTSUNNY   45  14  29 SW17G24   30.10S
SHELBYVILLE    CLOUDY    48  11  22 SW13      30.10S
ZIONSVILLE +   MOSUNNY   43  21  41 SW23      30.08F

$$

INZ033-034-041-042-049-050-058-059-262200-
EAST CENTRAL INDIANA

CITY           SKY/WX    TMP DP  RH WIND       PRES   REMARKS
MUNCIE         SUNNY     45  16  31 SW17G28   30.07F

$$

INZ060-061-067>069-081>083-085>088-262200-
SOUTHWEST INDIANA

CITY           SKY/WX    TMP DP  RH WIND       PRES   REMARKS
EVANSVILLE     MOSUNNY   52  15  23 SW14G20   30.14S
HUNTINGBURG *+ SUNNY     48  16  27 S12       30.14S
WASHINGTON +   CLOUDY    48  12  23 S10       30.12F

$$

INZ062-063-066-070>080-084-089>092-262200-
SOUTH CENTRAL AND SOUTHEAST INDIANA

CITY           SKY/WX    TMP DP  RH WIND       PRES   REMARKS
BEDFORD +      CLOUDY    48   7  18 S5        30.12F
BLOOMINGTON    MOSUNNY   47  12  24 SW14G21   30.11F
MADISON *+     SUNNY     46  12  25 SW12      30.16F
NORTH VERNON + SUNNY     46  14  27 S10G20    30.14F

$$





USA.gov is the U.S. government's official web portal to all federal, state and local government web resources and services.